Location: Unspecified
(0.0000°N, 0.0000°E)
Time: 17:56:53
(UTC+00:00)

Vanguard 2 - All Passes

Search period start: 29 July 2015 00:00
Search period end: 08 August 2015 00:00
Orbit: 554 x 2943 km, 32.9° (Epoch: 28 July)

Date Brightness Start Highest point End Pass type
(mag) Time Alt. Az. Time Alt. Az. Time Alt. Az.
29 Jul - 01:02:16 10° WNW 01:13:53 27° NNW 01:27:28 10° NNE visible
29 Jul - 03:21:41 10° NW 03:31:22 16° N 03:40:35 10° NNE visible
29 Jul - 05:39:00 10° NNW 05:49:09 19° N 05:57:52 10° NE visible
29 Jul - 07:51:23 10° NW 08:03:52 37° NNE 08:12:03 10° E daylight
29 Jul - 10:04:03 10° WNW 10:14:47 71° SW 10:21:01 10° SE daylight
29 Jul - 18:55:38 10° SSE 18:58:13 13° SE 19:01:48 10° ESE visible
29 Jul - 20:59:40 10° SW 21:07:21 67° SE 21:20:31 10° ENE visible
29 Jul - 23:08:41 10° W 23:18:51 46° NNW 23:33:58 10° NE visible
30 Jul - 01:23:10 10° WNW 01:34:04 22° NNW 01:46:10 10° NNE visible
30 Jul - 03:42:44 10° NNW 03:52:04 16° N 04:01:01 10° NNE visible
30 Jul - 05:57:44 10° NNW 06:09:22 23° NNE 06:18:49 10° ENE daylight
30 Jul - 08:09:56 10° NW 08:23:16 51° NNE 08:31:27 10° ESE daylight
30 Jul - 10:23:33 10° WNW 10:33:22 47° SW 10:39:19 10° SSE daylight
30 Jul - 19:12:22 10° S 19:16:57 21° SE 19:23:37 10° E visible
30 Jul - 21:18:12 10° SW 21:26:07 88° NNW 21:39:46 10° NE visible
30 Jul - 23:28:22 10° W 23:38:27 35° NNW 23:52:32 10° NE visible
31 Jul - 01:44:27 10° NW 01:54:29 19° N 02:05:09 10° NNE visible
31 Jul - 04:02:55 10° NNW 04:12:45 17° N 04:22:09 10° NE visible
31 Jul - 06:16:18 10° NNW 06:29:23 29° NNE 06:39:19 10° ENE daylight
31 Jul - 08:28:41 10° NW 08:42:26 70° NNE 08:50:31 10° ESE daylight
31 Jul - 10:43:33 10° W 10:51:54 30° SW 10:57:18 10° SSE daylight
31 Jul - 19:30:01 10° SSW 19:35:31 33° SE 19:44:10 10° E visible
31 Jul - 21:37:01 10° WSW 21:45:05 65° NNW 21:58:43 10° NE visible
31 Jul - 23:48:29 10° WNW 23:58:17 27° NNW 00:11:02 10° NNE visible
01 Aug - 02:05:49 10° NW 02:15:03 16° N 02:24:42 10° NNE visible
01 Aug - 04:22:19 10° NNW 04:33:17 19° NNE 04:43:33 10° NE visible
01 Aug - 06:34:49 10° NW 06:49:10 37° NNE 06:59:20 10° E daylight
01 Aug - 08:47:42 10° NW 09:01:22 86° SW 09:09:16 10° SE daylight
01 Aug - 11:04:16 10° W 11:10:31 19° SW 11:14:51 10° S daylight
01 Aug - 19:48:04 10° SW 19:54:03 51° SE 20:04:03 10° ENE visible
01 Aug - 21:56:08 10° W 22:04:18 47° NNW 22:17:25 10° NE visible
02 Aug - 00:09:05 10° WNW 00:18:20 22° NNW 00:29:36 10° NNE visible
02 Aug - 02:26:50 10° NNW 02:35:44 16° N 02:45:04 10° NNE visible
02 Aug - 04:41:14 10° NNW 04:53:39 23° NNE 05:04:46 10° ENE visible
02 Aug - 06:53:23 10° NW 07:08:43 49° NNE 07:18:57 10° E daylight
02 Aug - 09:07:01 10° WNW 09:20:05 62° SW 09:27:45 10° SE daylight
02 Aug - 11:26:35 10° WSW 11:29:16 11° SW 11:31:09 10° SSW daylight
02 Aug - 18:02:37 10° SSE 18:04:10 11° SE 18:06:19 10° ESE daylight
02 Aug - 20:06:25 10° SW 20:12:40 78° SE 20:23:26 10° ENE visible
02 Aug - 22:15:37 10° W 22:23:44 35° NNW 22:35:56 10° NE visible
03 Aug - 00:30:06 10° NW 00:38:35 18° N 00:48:24 10° NNE visible
03 Aug - 02:47:05 10° NNW 02:56:25 16° N 03:06:16 10° NE visible
03 Aug - 04:59:53 10° NNW 05:13:47 29° NNE 05:25:34 10° ENE visible
03 Aug - 07:12:05 10° NW 07:28:02 64° NNE 07:38:10 10° ESE daylight
03 Aug - 09:26:46 10° WNW 09:38:42 44° SW 09:45:59 10° SSE daylight
03 Aug - 18:19:04 10° S 18:22:49 20° SE 18:28:01 10° E visible
03 Aug - 20:25:05 10° WSW 20:31:28 72° NNW 20:42:27 10° NE visible
03 Aug - 22:35:32 10° WNW 22:43:24 26° NNW 22:54:20 10° NNE visible
04 Aug - 00:51:20 10° NW 00:59:02 16° N 01:07:40 10° NNE visible
04 Aug - 03:06:34 10° NNW 03:17:01 19° NNE 03:27:56 10° NE visible
04 Aug - 05:18:25 10° NW 05:33:42 36° NNE 05:45:53 10° E visible
04 Aug - 07:30:58 10° NW 07:47:07 83° NE 07:57:05 10° ESE daylight
04 Aug - 09:47:02 10° W 09:57:20 30° SW 10:03:56 10° SSE daylight
04 Aug - 18:36:45 10° SSW 18:41:20 34° SE 18:48:14 10° ENE visible
04 Aug - 20:44:02 10° WSW 20:50:30 49° NNW 21:01:10 10° NE visible
04 Aug - 22:55:56 10° WNW 23:03:17 20° NNW 23:12:41 10° NNE visible
05 Aug - 01:12:19 10° NNW 01:19:36 15° N 01:27:45 10° NNE visible
05 Aug - 03:25:31 10° NNW 03:37:27 22° NNE 03:49:32 10° ENE visible
05 Aug - 05:36:57 10° NW 05:53:21 46° NNE 06:05:44 10° E visible
05 Aug - 07:50:08 10° WNW 08:06:01 76° SW 08:15:44 10° SE daylight
05 Aug - 10:08:03 10° W 10:16:04 20° SW 10:21:30 10° S daylight
05 Aug - 18:54:54 10° SW 18:59:51 59° SE 19:07:48 10° ENE visible
05 Aug - 21:03:23 10° W 21:09:48 34° NNW 21:19:38 10° NE visible
05 Aug - 23:16:51 10° NW 23:23:21 16° N 23:31:05 10° NNE visible
06 Aug - 01:32:35 10° NNW 01:40:12 15° N 01:48:55 10° NE visible
06 Aug - 03:44:09 10° NNW 03:57:39 27° NNE 04:10:46 10° ENE visible
06 Aug - 05:55:35 10° NW 06:12:48 59° NNE 06:25:11 10° ESE daylight
06 Aug - 08:09:38 10° WNW 08:24:46 57° SW 08:34:08 10° SE daylight
06 Aug - 10:30:18 10° WSW 10:34:59 13° SW 10:38:17 10° SSW daylight
06 Aug - 17:09:06 10° SSE 17:10:18 11° SE 17:11:52 10° SE daylight
06 Aug - 19:13:23 10° WSW 19:18:31 84° NW 19:26:53 10° NE visible
06 Aug - 21:23:10 10° WNW 21:29:17 24° NNW 21:37:53 10° NNE visible
06 Aug - 23:38:10 10° NNW 23:43:35 13° N 23:49:45 10° NNE visible
07 Aug - 01:52:01 10° NNW 02:00:45 17° NNE 02:10:50 10° NE visible
07 Aug - 04:02:39 10° NNW 04:17:37 34° NNE 04:31:28 10° E visible
07 Aug - 06:14:20 10° NW 06:32:01 75° NNE 06:44:18 10° ESE daylight
07 Aug - 08:29:36 10° WNW 08:43:29 42° SW 08:52:19 10° SSE daylight
07 Aug - 17:25:40 10° S 17:28:56 21° SE 17:33:09 10° E daylight
07 Aug - 19:32:14 10° WSW 19:37:22 52° NNW 19:45:38 10° NE visible
07 Aug - 21:43:31 10° NW 21:48:58 18° NNW 21:55:55 10° NNE visible
